map of SOZ home
Great Circle Mapper logo
SOZ - Airport
Location
City:  Solenzara, France
ICAO / IATA:LFKS / SOZ

Details
Type:Airport (Aerodrome, Airfield)
Use:Military
Latitude:4155'35"N (41.926389)
Longitude:924'19"E (9.405278)
Elevation:28 ft (9 m)
Variation:2.16E (WMM2015 magnetic declination)
0.11 annual change
Runways:1
Longest:8619 × 148 ft (2627 × 45 m)

Time
Time Zone:UTC+1 (DST+2)
Local Time:

Weather
METAR:LFKS 291200Z AUTO 10005KT 070V130 9999 NSC 19/05 Q1012
TAF:LFKS 290800Z 2909/3009 12005KT CAVOK
BECMG 2918/2920 27005KT= TAF LFMY 290800Z 2909/3009 33010G20KT CAVOK
BECMG 29011/2913 33020G30KT

Related Locations
Nearby:
Farthest:CHT: 12114 mi / 19496 km
Waitangi [Tuuta], Chatham Islands, NZ

Find:

   beyond  
but within

Other Information
Maps:
NOTAMs:
Links:
Sources:

  
flag of France   

Sectional Chart

Flight Planning
at skyvector.com

Satellite Image

Google Maps Satellite View

 

Copyright © 2004-2015 Karl L. Swartz. All rights reserved.
The Great Circle Mapper name and logo are trademarks of the Great Circle Mapper.
All other trademarks mentioned herein belong to their respective owners.
Please see credits for attibutions and further copyright information.

  Follow gcmap on Facebook Follow gcmap on Twitter Follow gcmap on Google+

hCard Microformat

Geo Microformat